GW3271 Weather Reports


Display with metric or nautical units.
time (UTC)temp
F
wind
direction
speed
MPH
gust
MPH
rain 1hr
in
rain 24hr
in
rain mn
in
humidity
%
barometer
mb
20260508050030 63 76 0.0 1.0 0.00 0.00 0.00 74 1015.2
20260508044526 63 281 0.0 2.0 0.00 0.00 0.00 75 1015.8
20260508043029 63 0 0.0 2.0 0.00 0.00 0.00 74 1014.7
20260508041529 63 65 0.0 2.0 0.00 0.00 0.00 74 1015.2
20260508040029 62 0 0.0 1.0 0.00 0.00 0.00 75 1015.5
20260508034528 62 0 0.0 0.0 0.00 0.00 0.00 75 1015.8
20260508033030 62 0 0.0 0.0 0.00 0.00 0.00 75 1016.5
20260508031528 63 0 0.0 0.0 0.00 0.00 0.00 74 1016.2
20260508030028 63 0 0.0 3.0 0.00 0.00 0.00 73 1015.4
20260508024535 63 0 0.0 0.0 0.00 0.00 0.00 73 1015.3
20260508023028 63 60 2.0 9.0 0.00 0.00 0.00 73 1014.2
20260508021533 64 102 1.0 6.0 0.00 0.00 0.00 72 1014.0
20260508020029 64 67 0.0 7.0 0.00 0.00 0.00 71 1014.0
20260508014528 64 55 2.0 8.0 0.00 0.00 0.00 70 1013.5
20260508013037 65 0 2.0 7.0 0.00 0.00 0.00 68 1013.8
20260508011529 65 56 1.0 9.0 0.00 0.00 0.00 68 1014.4
20260508010033 65 58 1.0 7.0 0.00 0.00 0.00 66 1013.8
20260508004537 66 60 1.0 6.0 0.00 0.00 0.00 63 1014.3
20260508003029 67 39 1.0 6.0 0.00 0.00 0.00 62 1014.5
20260508001526 67 0 0.0 5.0 0.00 0.00 0.00 62 1014.9
20260508000028 67 62 1.0 5.0 0.00 0.00 0.00 61 1015.1
20260507234530 68 0 1.0 5.0 0.00 0.00 0.00 62 1015.5
20260507233036 67 0 2.0 4.0 0.00 0.00 0.00 61 1015.6
20260507231526 67 110 2.0 8.0 0.00 0.00 0.00 62 1015.4
20260507230028 68 64 0.0 5.0 0.00 0.00 0.00 63 1015.5
20260507224533 68 72 2.0 5.0 0.00 0.00 0.00 63 1015.8
20260507223028 68 0 0.0 4.0 0.00 0.00 0.00 64 1016.0
20260507221527 68 0 0.0 6.0 0.00 0.00 0.00 62 1016.2
20260507220027 69 284 0.0 6.0 0.00 0.00 0.00 62 1016.1
20260507214531 69 0 0.0 6.0 0.00 0.00 0.00 62 1016.0
20260507213030 69 0 0.0 6.0 0.00 0.00 0.00 62 1015.9
20260507211528 68 110 2.0 6.0 0.00 0.00 0.00 62 1016.1
20260507210039 66 108 2.0 9.0 0.00 0.00 0.00 64 1015.8
20260507204527 66 37 3.0 8.0 0.00 0.00 0.00 65 1016.0
20260507203028 67 133 2.0 7.0 0.00 0.00 0.00 65 1016.9
20260507201528 67 79 3.0 8.0 0.00 0.00 0.00 65 1016.7
20260507200036 67 96 4.0 10.0 0.00 0.00 0.00 64 1016.5
20260507194548 66 78 2.0 9.0 0.00 0.00 0.00 66 1017.1
20260507193032 65 37 2.0 7.0 0.00 0.00 0.00 69 1017.0
20260507191527 65 89 0.0 5.0 0.00 0.00 0.00 70 1017.4
20260507190028 65 113 2.0 8.0 0.00 0.00 0.00 69 1017.1
20260507184531 65 60 3.0 10.0 0.00 0.00 0.00 68 1017.5
20260507183034 65 58 2.0 7.0 0.00 0.00 0.00 69 1018.0
20260507181527 65 94 2.0 9.0 0.00 0.00 0.00 70 1017.8
20260507180030 63 64 2.0 9.0 0.00 0.00 0.00 73 1017.6
20260507174535 63 74 1.0 5.0 0.00 0.00 0.00 73 1017.6
20260507173035 62 0 2.0 8.0 0.00 0.00 0.00 75 1017.6
20260507171529 61 82 2.0 9.0 0.00 0.00 0.00 76 1017.6
20260507170030 61 65 1.0 10.0 0.00 0.00 0.00 76 1018.4
20260507164528 61 30 3.0 10.0 0.00 0.02 0.00 76 1018.0
20260507163026 60 333 1.0 9.0 0.00 0.02 0.00 78 1018.3
20260507161529 60 0 0.0 7.0 0.00 0.02 0.00 78 1019.2
20260507160028 60 0 2.0 8.0 0.00 0.02 0.00 79 1018.7
20260507154534 60 143 3.0 8.0 0.00 0.02 0.00 80 1018.8
20260507153039 60 63 1.0 7.0 0.00 0.02 0.00 81 1018.9
20260507151528 60 319 2.0 8.0 0.00 0.02 0.00 82 1018.8
20260507150030 60 0 1.0 7.0 0.00 0.02 0.00 83 1018.6
20260507144528 60 68 2.0 5.0 0.00 0.02 0.00 83 1018.6
20260507143029 60 108 1.0 5.0 0.00 0.02 0.00 83 1018.9
20260507141527 60 49 2.0 8.0 0.00 0.02 0.00 84 1018.1
20260507140029 60 354 0.0 8.0 0.00 0.02 0.00 84 1018.3
20260507134526 60 36 2.0 8.0 0.00 0.02 0.00 84 1017.9
20260507133026 60 72 2.0 8.0 0.00 0.02 0.00 85 1017.8
20260507131526 59 47 1.0 7.0 0.00 0.02 0.00 85 1017.7
20260507130037 59 78 1.0 7.0 0.00 0.02 0.00 85 1018.0
20260507124529 59 276 1.0 8.0 0.00 0.02 0.00 85 1017.8
20260507123026 59 124 1.0 6.0 0.00 0.02 0.00 85 1017.7
20260507121526 59 0 0.0 9.0 0.00 0.02 0.00 86 1017.3
20260507120025 59 59 1.0 8.0 0.00 0.02 0.00 86 1016.7
20260507114527 59 0 0.0 5.0 0.00 0.02 0.00 86 1017.3
20260507113029 59 0 1.0 6.0 0.00 0.02 0.00 86 1016.9
20260507111528 59 79 1.0 10.0 0.00 0.02 0.00 86 1016.8
20260507110026 59 115 1.0 8.0 0.00 0.02 0.00 85 1016.5
20260507104527 59 70 1.0 6.0 0.00 0.02 0.00 85 1016.9
20260507103031 59 110 3.0 7.0 0.00 0.02 0.00 85 1016.6
20260507101530 59 71 1.0 8.0 0.00 0.02 0.00 85 1016.6
20260507100034 59 85 0.0 7.0 0.00 0.02 0.00 84 1016.3
20260507094527 60 0 0.0 8.0 0.00 0.02 0.00 84 1016.1
20260507093028 60 64 0.0 6.0 0.00 0.02 0.00 84 1015.9
20260507091528 60 0 0.0 5.0 0.00 0.02 0.00 83 1016.2
20260507090030 60 71 0.0 4.0 0.00 0.02 0.00 83 1015.9
20260507084529 60 0 0.0 6.0 0.00 0.02 0.00 83 1015.7
20260507083029 60 0 0.0 4.0 0.00 0.02 0.00 83 1015.8
20260507081526 60 70 0.0 5.0 0.00 0.02 0.00 82 1015.2
20260507080036 60 0 1.0 7.0 0.00 0.02 0.00 82 1015.2
20260507074529 61 120 0.0 8.0 0.00 0.02 0.00 82 1015.1
20260507073026 61 0 0.0 7.0 0.00 0.02 0.00 81 1015.3
20260507071556 61 45 0.0 7.0 0.00 0.02 0.00 80 1015.2
20260507070030 61 98 1.0 6.0 0.00 0.02 0.00 80 1015.6
20260507064530 61 32 4.0 9.0 0.00 0.02 0.00 79 1015.5
20260507063031 61 103 2.0 7.0 0.00 0.02 0.00 79 1014.9
20260507061530 62 63 2.0 8.0 0.00 0.02 0.00 79 1015.3
20260507060026 62 64 3.0 9.0 0.00 0.02 0.00 79 1015.1
20260507054528 62 101 1.0 4.0 0.00 0.02 0.00 79 1015.5
20260507053039 62 80 2.0 8.0 0.00 0.02 0.00 79 1015.3
20260507051538 62 90 2.0 8.0 0.00 0.02 0.00 78 1014.9